Location: Laterina
(43.5167°N, 11.7167°E)
Time: 13:09:20
(UTC+00:00)

Cosmos 2026 Rocket - Pass Details

Date: 21 January 2021
Orbit: 940 x 1000 km, 82.9° (Epoch: 28 February)

Event Time Altitude Azimuth Distance (km) Brightness Sun altitude
Rises 19:56:26 0° 235° (SW) 3,609 7.4 -40.7°
Reaches altitude 10° 19:59:49 10° 254° (WSW) 2,678 6.8 -41.3°
Maximum altitude 20:03:47 18° 295° (WNW) 2,189 6.3 -42.0°
Drops below altitude 10° 20:07:49 10° 336° (NNW) 2,714 6.6 -42.7°
Sets 20:11:19 0° 355° (N) 3,678 7.2 -43.3°
